Flag for Philippines Weather past 2 weeks in Mabalacat, Philippines

75 °F

Partly sunny.

Feels Like: 75 °F
Forecast: 74 / 89 °F
Wind: 3 mph from Southwest

Location: Clarkfield Pampanga International Airport

Current Time: Oct 9, 2015 at 7:01:50 AM

Latest Report: Oct 9, 2015 at 6:00 AM

Visibility: N/A

Pressure: 29.89 "Hg

Humidity: 89%

Dew point: 72 °F

Location of MabalacatLocation

Historic Weather in Mabalacat — Graph


Mabalacat temperature yesterday

Maximum temperature yesterday: 90 °F (at 12:00 PM)
Minimum temperature yesterday: 77 °F (at 2:00 AM)
Average temperature yesterday: 82 °F

Past Weeks' High & Low Weather Summary

High93 °F (Oct 6, 3:00 PM)100% (Sep 26, 10:00 AM)30.01 "Hg (Sep 26, 10:00 AM)
Low70 °F (Sep 26, 10:00 AM)49% (Oct 7, 4:00 PM)29.62 "Hg (Sep 25, 2:00 PM)
Average81 °F82%29.85 "Hg
* Reported Sep 24 5:00 AM — Oct 9 5:00 AM, Mabalacat, Weather by CustomWeather, © 2015

Note: Actual official high and low records may vary slightly from our data, if they occured in-between our weather recording intervals... More about our weather records


Mabalacat weather history for previous 24 hours

Time TempWeatherWind HumidityBarometerVisibility
5:00 AM
Fri, Oct 9
73 °FPassing clouds.6 mph89%29.86 "HgN/A
4:00 AM73 °FPassing clouds.7 mph89%29.86 "HgN/A
3:00 AM73 °FPassing clouds.2 mph89%29.86 "HgN/A
2:00 AM75 °FThunderstorms. Overcast.N/A89%29.89 "HgN/A
1:00 AM77 °FPassing clouds.1 mph83%29.89 "HgN/A
12:00 AM77 °FPassing clouds.5 mph83%29.92 "HgN/A
11:00 PM
Thu, Oct 8
77 °FPassing clouds.2 mph83%29.92 "HgN/A
10:00 PM79 °FPassing clouds.1 mph79%29.92 "HgN/A
9:00 PM81 °FPassing clouds.5 mph79%29.92 "HgN/A
8:00 PM79 °FPassing clouds.1 mph84%29.89 "HgN/A
7:00 PM79 °FPartly cloudy.6 mph84%29.86 "Hg6 mi
6:00 PM81 °FPartly cloudy.2 mph84%29.86 "Hg6 mi
5:00 PM86 °FThunderstorms. Broken clouds.2 mph70%29.83 "Hg6 mi
4:00 PM86 °FBroken clouds.3 mph70%29.83 "Hg6 mi
3:00 PM86 °FThunderstorms. Broken clouds.9 mph70%29.83 "Hg5 mi
2:00 PM86 °FRain showers. Broken clouds.6 mph66%29.83 "Hg6 mi
1:03 PM90 °FSprinkles. Mostly cloudy.6 mph67%29.86 "Hg4 mi
12:00 PM90 °FPartly sunny.2 mph63%29.89 "Hg5 mi
11:00 AM88 °FBroken clouds.5 mph75%29.92 "Hg5 mi
10:00 AM86 °FBroken clouds.3 mph75%29.92 "Hg5 mi
9:00 AM84 °FBroken clouds.2 mph74%29.92 "Hg4 mi
8:00 AM81 °FScattered clouds.1 mph84%29.92 "Hg4 mi
7:00 AM79 °FBroken clouds.1 mph89%29.86 "Hg4 mi
Weather by CustomWeather, © 2015

See weather overviewHow to use our weather pages